This demonstration page uses our WeatherBlox Daily Observations layout. Learn more.

38.88101, -77.10428

Hourly Observations for November 23, 2016

Temp ( °F °C ) Dew Point ( °F °C ) Humidity (%) Winds ( mph kmh ) Pressure ( in mb ) Visibility ( mi km ) Precip ( " mm )
12:52 am 00:52 Mostly Clear 38 3.3 21 -6.1 51 51 NNW 7 11 30.33 1027 10 16.09344 0 0
1:52 am 01:52 Mostly Clear 36 2.2 21 -6.1 55 55 SSW 3 6 30.33 1027 10 16.09344 0 0
2:52 am 02:52 Mostly Clear 35 1.7 21 -6.1 57 57 Calm 30.33 1027 10 16.09344 0 0
3:52 am 03:52 Mostly Clear 35 1.7 24 -4.4 64 64 Calm 30.33 1027 10 16.09344 0 0
4:52 am 04:52 Mostly Clear 36 2.2 24 -4.4 62 62 Calm 30.36 1028 10 16.09344 0 0
5:52 am 05:52 Mostly Clear 36 2 23 -5 60 60 Calm 30.36 1028 10 16.09344 0 0
6:52 am 06:52 Mostly Clear 35 1.7 23 -5 61 61 Calm 30.36 1028 10 16.09344 0 0
7:52 am 07:52 Mostly Sunny 38 3.3 24 -4.4 57 57 Calm 30.36 1028 10 16.09344 0 0
8:52 am 08:52 Mostly Sunny 40 4.4 27 -2.8 60 60 Calm 30.39 1029 10 16.09344 0 0
9:52 am 09:52 Mostly Sunny 44 6.7 24 -4.4 45 45 Calm 30.39 1029 10 16.09344 0 0
10:52 am 10:52 Partly Cloudy 46 7.8 23 -5 40 40 Calm 30.36 1028 10 16.09344 0 0
11:52 am 11:52 Partly Cloudy 47 8.3 22 -5.6 37 37 ESE 3 6 30.33 1027 10 16.09344 0 0
12:52 pm 12:52 Partly Cloudy 49 9.4 22 -5.6 35 35 S 5 7 30.3 1026 10 16.09344 0 0
1:52 pm 13:52 Partly Cloudy 51 10.6 24 -4.4 35 35 S 8 13 30.3 1026 10 16.09344 0 0
2:52 pm 14:52 Partly Cloudy 50 10 25 -3.9 38 38 SSE 9 15 30.27 1025 10 16.09344 0 0
3:52 pm 15:52 Mostly Cloudy 50 10 27 -2.8 41 41 S 8 13 30.27 1025 10 16.09344 0 0
4:52 pm 16:52 Mostly Cloudy 50 10 20 -6.7 30 30 SSW 6 9 30.27 1025 10 16.09344 0 0
5:11 pm 17:11 Mostly Cloudy with Light Rain 50 10 21 -6.1 32 32 SW 6 9 30.27 1025 10 16.09344 0.001 0.001
5:52 pm 17:52 Mostly Cloudy 50 10 21 -6.1 32 32 SW 6 9 30.27 1025 10 16.09344 0.001 0.001
6:52 pm 18:52 Mostly Cloudy 48 8.9 28 -2.2 46 46 S 5 7 30.27 1025 10 16.09344 0 0
7:52 pm 19:52 Mostly Cloudy 48 8.9 26 -3.3 42 42 S 5 7 30.27 1025 10 16.09344 0 0
8:52 pm 20:52 Partly Cloudy 47 8.3 31 -0.6 54 54 Calm 30.27 1025 10 16.09344 0 0
9:52 pm 21:52 Mostly Cloudy 47 8.3 27 -2.8 46 46 S 3 6 30.27 1025 10 16.09344 0 0
10:52 pm 22:52 Cloudy 46 7.8 31 -0.6 56 56 Calm 30.27 1025 10 16.09344 0 0
11:52 pm 23:52 Mostly Cloudy 45 7.2 35 1.7 68 68 SSE 6 9 30.27 1025 10 16.09344 0 0

Powered by AerisWeather